TimeEDT,TemperatureF,Dew PointF,Humidity,Sea Level PressureIn,VisibilityMPH,Wind Direction,Wind SpeedMPH,Gust SpeedMPH,PrecipitationIn,Events,Conditions,WindDirDegrees,DateUTC
12:56 AM,70.9,70.0,97,30.03,10.0,SSW,3.5,-,0.01,,Scattered Clouds,210,2013-07-10 04:56:00
1:44 AM,71.6,69.8,94,29.99,10.0,Calm,Calm,-,N/A,,Mostly Cloudy,0,2013-07-10 05:44:00
1:56 AM,71.6,69.8,94,30.00,10.0,Variable,4.6,-,N/A,,Mostly Cloudy,0,2013-07-10 05:56:00
2:11 AM,71.6,69.8,94,29.99,10.0,SSW,3.5,-,N/A,,Mostly Cloudy,210,2013-07-10 06:11:00
2:56 AM,70.9,70.0,97,30.00,7.0,Variable,3.5,-,0.00,Rain,Light Rain,0,2013-07-10 06:56:00
3:56 AM,70.9,70.0,97,30.01,8.0,WNW,6.9,-,0.00,,Overcast,300,2013-07-10 07:56:00
4:19 AM,71.6,69.8,94,29.98,4.0,Calm,Calm,-,0.01,Rain,Light Rain,0,2013-07-10 08:19:00
4:56 AM,69.8,69.8,100,29.98,8.0,Calm,Calm,-,N/A,,Mostly Cloudy,0,2013-07-10 08:56:00
5:15 AM,71.6,69.8,94,29.99,4.0,Calm,Calm,-,0.01,Rain,Light Rain,0,2013-07-10 09:15:00
5:26 AM,71.6,69.8,94,29.98,1.8,SSW,5.8,-,0.07,Rain,Heavy Rain,210,2013-07-10 09:26:00
5:33 AM,69.8,69.8,100,29.98,2.0,Calm,Calm,-,0.09,Rain,Light Rain,0,2013-07-10 09:33:00
5:37 AM,69.8,69.8,100,29.97,3.0,SSW,4.6,-,0.09,Rain,Light Rain,200,2013-07-10 09:37:00
5:56 AM,70.0,70.0,100,29.98,6.0,Variable,3.5,-,0.09,Rain,Light Rain,0,2013-07-10 09:56:00
6:04 AM,69.8,69.8,100,29.96,7.0,Variable,4.6,-,0.00,Rain,Light Rain,0,2013-07-10 10:04:00
6:11 AM,69.8,69.8,100,29.99,6.0,Variable,4.6,-,0.01,Rain,Light Rain,0,2013-07-10 10:11:00
6:19 AM,69.8,69.8,100,30.00,1.8,Calm,Calm,-,0.09,Rain,Heavy Rain,0,2013-07-10 10:19:00
6:25 AM,69.8,69.8,100,30.01,1.0,WSW,9.2,-,0.19,Rain,Heavy Rain,240,2013-07-10 10:25:00
6:39 AM,69.8,69.8,100,29.97,1.8,Variable,3.5,-,0.32,Rain,Heavy Rain,0,2013-07-10 10:39:00
6:41 AM,69.8,69.8,100,29.97,3.0,Variable,4.6,-,0.32,Rain,Light Rain,0,2013-07-10 10:41:00
6:56 AM,68.9,68.9,100,29.99,1.8,South,6.9,-,0.36,Rain,Heavy Rain,170,2013-07-10 10:56:00
7:00 AM,69.8,69.8,100,29.96,1.5,Variable,4.6,-,0.00,Rain,Light Rain,0,2013-07-10 11:00:00
7:04 AM,69.8,69.8,100,29.96,2.0,Variable,5.8,-,0.01,Rain,Light Rain,0,2013-07-10 11:04:00
7:06 AM,69.8,69.8,100,29.96,3.0,Variable,4.6,-,0.01,Rain,Light Rain,0,2013-07-10 11:06:00
7:47 AM,69.8,69.8,100,29.98,10.0,Calm,Calm,-,0.02,,Overcast,0,2013-07-10 11:47:00
7:56 AM,69.8,69.8,100,29.99,2.5,NE,4.6,-,N/A,Rain,Rain,50,2013-07-10 11:56:00
8:01 AM,69.8,69.8,100,29.98,1.8,East,5.8,-,0.02,Rain,Rain,80,2013-07-10 12:01:00
8:24 AM,69.8,69.8,100,29.98,1.2,Calm,Calm,-,0.10,Rain,Light Rain,0,2013-07-10 12:24:00
8:28 AM,69.8,69.8,100,29.97,2.0,Calm,Calm,-,0.10,Rain,Light Rain,0,2013-07-10 12:28:00
8:37 AM,69.8,69.8,100,29.97,5.0,Calm,Calm,-,0.10,Rain,Light Rain,0,2013-07-10 12:37:00
8:46 AM,69.8,69.8,100,29.97,7.0,SSW,3.5,-,0.10,Rain,Light Rain,200,2013-07-10 12:46:00
8:56 AM,70.0,70.0,100,29.99,10.0,Variable,3.5,-,0.10,,Scattered Clouds,0,2013-07-10 12:56:00
9:56 AM,70.9,68.0,91,29.99,10.0,Variable,4.6,-,N/A,,Mostly Cloudy,0,2013-07-10 13:56:00
10:36 AM,73.4,71.6,94,29.95,10.0,Variable,3.5,-,N/A,,Scattered Clouds,0,2013-07-10 14:36:00
10:56 AM,75.2,71.6,89,29.95,10.0,South,3.5,-,N/A,,Mostly Cloudy,170,2013-07-10 14:56:00
11:09 AM,75.2,71.6,89,29.95,10.0,Variable,3.5,-,N/A,,Mostly Cloudy,0,2013-07-10 15:09:00
11:56 AM,77.9,72.9,84,29.96,10.0,SSW,3.5,-,N/A,,Mostly Cloudy,200,2013-07-10 15:56:00
12:04 PM,78.8,73.4,83,29.94,9.0,SW,6.9,-,N/A,,Mostly Cloudy,220,2013-07-10 16:04:00
12:56 PM,82.9,74.8,76,29.94,10.0,SSW,5.8,-,N/A,,Mostly Cloudy,210,2013-07-10 16:56:00
1:31 PM,84.2,75.2,74,29.90,10.0,Variable,5.8,-,N/A,,Mostly Cloudy,0,2013-07-10 17:31:00
1:41 PM,84.2,75.2,74,29.90,10.0,South,6.9,-,N/A,,Scattered Clouds,190,2013-07-10 17:41:00
1:56 PM,84.2,75.2,74,29.90,10.0,Variable,5.8,-,N/A,,Scattered Clouds,0,2013-07-10 17:56:00
2:56 PM,82.9,77.0,82,29.88,10.0,Calm,Calm,-,0.00,,Partly Cloudy,0,2013-07-10 18:56:00
3:56 PM,79.0,74.8,87,29.88,9.0,Calm,Calm,-,0.02,Rain,Light Rain,0,2013-07-10 19:56:00
4:24 PM,73.4,66.2,78,29.90,2.5,ESE,8.1,-,0.09,Rain,Rain,110,2013-07-10 20:24:00
4:27 PM,71.6,64.4,78,29.89,1.5,Variable,6.9,-,0.12,Rain,Heavy Rain,0,2013-07-10 20:27:00
4:31 PM,69.8,64.4,83,29.88,1.0,East,18.4,21.9,0.14,Rain,Heavy Rain,80,2013-07-10 20:31:00
4:34 PM,69.8,64.4,83,29.88,1.5,ENE,18.4,23.0,0.14,Rain,Light Rain,60,2013-07-10 20:34:00
4:39 PM,68.0,64.4,88,29.87,3.0,ENE,18.4,24.2,0.14,,Mostly Cloudy,70,2013-07-10 20:39:00
4:49 PM,68.0,66.2,94,29.89,10.0,NE,9.2,-,0.14,Rain,Light Rain,40,2013-07-10 20:49:00
4:56 PM,68.0,66.2,94,29.95,1.0,West,13.8,20.7,N/A,Rain,Heavy Rain,270,2013-07-10 20:56:00
5:00 PM,66.2,66.2,100,29.95,0.8,NW,9.2,20.7,0.01,Rain,Rain,310,2013-07-10 21:00:00
5:04 PM,66.2,64.4,94,29.93,1.0,North,6.9,-,0.01,Rain,Light Rain,10,2013-07-10 21:04:00
5:06 PM,66.2,64.4,94,29.93,1.5,North,5.8,-,0.02,Rain,Light Rain,350,2013-07-10 21:06:00
5:08 PM,66.2,64.4,94,29.93,3.0,NNW,4.6,-,0.02,Rain,Light Rain,340,2013-07-10 21:08:00
5:15 PM,68.0,64.4,88,29.92,1.8,North,10.4,-,0.05,Rain,Rain,360,2013-07-10 21:15:00
5:18 PM,68.0,64.4,88,29.92,1.0,North,11.5,-,0.10,Rain,Rain,10,2013-07-10 21:18:00
5:26 PM,68.0,66.2,94,29.92,1.0,North,9.2,17.3,0.14,Rain,Heavy Rain,360,2013-07-10 21:26:00
5:29 PM,68.0,66.2,94,29.93,1.5,North,10.4,17.3,0.14,Rain,Rain,350,2013-07-10 21:29:00
5:35 PM,68.0,66.2,94,29.95,2.0,Variable,4.6,-,0.16,Rain,Rain,0,2013-07-10 21:35:00
5:46 PM,66.2,66.2,100,29.96,1.2,SE,3.5,-,0.19,Rain,Rain,140,2013-07-10 21:46:00
5:56 PM,68.0,66.9,96,30.00,1.5,Calm,Calm,-,0.24,Rain,Light Rain,0,2013-07-10 21:56:00
6:07 PM,66.2,66.2,100,29.96,2.0,Calm,Calm,-,0.02,Rain,Rain,0,2013-07-10 22:07:00
6:23 PM,66.2,66.2,100,29.95,4.0,Calm,Calm,-,0.03,Rain,Light Rain,0,2013-07-10 22:23:00
6:37 PM,66.2,66.2,100,29.95,2.0,Calm,Calm,-,0.07,Rain,Rain,0,2013-07-10 22:37:00
6:48 PM,66.2,66.2,100,29.94,2.0,Calm,Calm,-,0.11,Rain,Rain,0,2013-07-10 22:48:00
6:56 PM,66.9,65.8,96,29.96,1.5,Calm,Calm,-,0.15,Rain,Heavy Rain,0,2013-07-10 22:56:00
7:11 PM,66.2,66.2,100,29.90,2.5,ESE,8.1,-,0.06,Rain,Rain,110,2013-07-10 23:11:00
7:21 PM,66.2,66.2,100,29.89,5.0,SE,9.2,-,0.07,Rain,Light Rain,130,2013-07-10 23:21:00
7:56 PM,66.9,65.8,96,29.92,10.0,Variable,4.6,-,0.07,Rain,Light Rain,0,2013-07-10 23:56:00
8:49 PM,66.2,66.2,100,29.93,10.0,West,6.9,-,0.00,,Scattered Clouds,260,2013-07-11 00:49:00
8:56 PM,65.8,65.8,100,29.96,10.0,WSW,5.8,-,0.00,,Mostly Cloudy,240,2013-07-11 00:56:00
9:14 PM,66.2,64.4,94,29.94,10.0,SW,4.6,-,N/A,,Scattered Clouds,230,2013-07-11 01:14:00
9:56 PM,64.9,64.9,100,29.98,10.0,Calm,Calm,-,N/A,,Partly Cloudy,0,2013-07-11 01:56:00
10:56 PM,64.9,63.9,96,29.97,10.0,Calm,Calm,-,N/A,,Clear,0,2013-07-11 02:56:00
11:56 PM,64.9,63.9,96,29.96,10.0,Calm,Calm,-,N/A,,Mostly Cloudy,0,2013-07-11 03:56:00